Regional Weather Roundup
Issued by NWS Mt. Holly, NJ

Home | Current Version | Previous Version | Text Only | Print | Product List | Glossary On
Versions: 1 2 3 4 5 6 7 8 9 10 11 12 13 14 15 16 17 18 19 20 21 22 23 24 25 26 27 28 29 30 31 32 33 34 35 36 37 38 39 40 41 42 43 44 45 46 47 48 49 50
000
ASUS41 KPHI 141012
RWRPHI

REGIONAL WEATHER ROUNDUP
NATIONAL WEATHER SERVICE MOUNT HOLLY NJ
500 AM EST SUN FEB 14 2016

NOTE:  "FAIR" INDICATES FEW OR NO CLOUDS BELOW 12,000 FEET WITH NO
SIGNIFICANT WEATHER AND/OR OBSTRUCTIONS TO VISIBILITY.

 * = STATION DOES NOT REPORT PRECIPITATION (E.G. RAIN, SNOW, ETC.)
        OR FOG.

NJZ015>026-141100-
SOUTHERN NEW JERSEY

CITY           SKY/WX    TMP DP  RH WIND       PRES   REMARKS
POMONA         CLEAR     10  -9  42 NW14      30.41R WCI  -6
WILDWOOD*      MOCLDY    12  -8  40 NW12G26   30.44R WCI  -2
MILLVILLE      CLEAR     11  -6  46 NW12G18   30.44R WCI  -3
WRIGHTSTOWN    CLEAR      9  -9  43 NW14G21   30.40F WCI  -8
MOUNT HOLLY    CLEAR      8 -11  41 NW12G23   30.43R WCI  -7
TRENTON        CLEAR      6 -10  47 NW13G22   30.41R WCI -10

$$
NJZ001>014-141100-
NORTHERN NEW JERSEY

CITY           SKY/WX    TMP DP  RH WIND       PRES   REMARKS
SUSSEX         CLEAR     -3 -17  51 NW12G25   30.37R WCI -21
ANDOVER*         N/A     -3 -16  53 VRB5      30.38R WCI -13
MORRISTOWN     CLEAR      1 -17  42 N10       30.41R WCI -14
NEWARK         PTCLDY     3 -13  47 NW15G21   30.42R WCI -16
TETERBORO      PTCLDY     2 -17  41 NW21G33   30.41R WCI -20
CALDWELL       CLEAR      1 -18  40 NW17G26   30.42R WCI -19
SOMERVILLE     PTCLDY     4 -14  43 NW10      30.40R WCI -11
ALLAIRE*       CLEAR      7 -17  33 NW16      30.39R WCI -11
TOMS RIVER*    CLEAR      7  -8  51 NW8       30.41R WCI  -6

$$
PAZ043-044-047-054-055-060>062-066>071-141100-
EASTERN PENNSYLVANIA

CITY           SKY/WX    TMP DP  RH WIND       PRES   REMARKS
PHILADELPHIA   PTCLDY    10 -10  40 NW16      30.45R WCI  -7
NORTH PHILA    CLEAR      9 -10  42 NW14G21   30.45R WCI  -7
BLUE BELL*       N/A      7  -9  47 NW6       30.41R WCI  -3
DOYLESTOWN     CLEAR      3 -12  49 NW5       30.39R WCI  -6
QUAKERTOWN*    CLEAR      5  -9  51 NW3       30.39R
PERKASIE*      FAIR       5 -11  47 NW9       30.38R WCI  -9
POTTSTOWN      CLEAR      6  -9  50 NW12G21   30.43R WCI  -9
LANCASTER      PTCLDY     5  -7  57 NW7       30.42R WCI  -7
COATESVILLE    CLEAR      7  -8  51 NW10      30.39R WCI  -8
READING        CLEAR      6  -8  52 NW9       30.42R WCI  -8
ALLENTOWN      CLEAR      4 -11  50 NW20G25   30.40R WCI -17
MOUNT POCONO   CLOUDY    -8 -17  64 NW15G26   30.18R WCI -30
HAZLETON       CLEAR     -2 -13  60 NW13G20   30.29R WCI -21
LEHIGHTON      FAIR       3 -13  47 NW8G16    30.40R WCI -10
WILKES BARRE   MOCLDY    -3 -15  56 N13       30.36R WCI -22

$$
DEZALL-MDZ008-012-015-019-020-141100-
DELAWARE AND EASTERN MARYLAND

CITY           SKY/WX    TMP DP  RH WIND       PRES   REMARKS
WILMINGTON     CLEAR      9  -4  55 NW9       30.46R WCI  -4
DOVER          CLEAR     13  -5  46 NW15      30.45R WCI  -3
GEORGETOWN     CLEAR     13  -6  42 NW6       30.47R WCI   4
EASTON         CLEAR     14   0  52 NW12G17   30.52R WCI   1
PATUXENT       CLEAR     14  -3  47 W10G22    30.50R WCI   1
OCEAN CITY     CLEAR     13  -4  46 NW9       30.47R WCI   1
WALLOPS ISLAND FAIR      14  -2  49 NW10      30.48R WCI   1
SALISBURY      CLEAR     13  -2  51 NW8       30.47R WCI   2

$$
PAZ001-021-NYZ056-072-MDZ011-DCZ001-141100-
OTHER NEARBY LOCATIONS

CITY           SKY/WX    TMP DP  RH WIND       PRES   REMARKS
HARRISBURG     PTCLDY    10  -4  53 NW14      30.43R WCI  -6
STATE COLLEGE  MOCLDY     2  -5  75 SW3       30.37R
WILLIAMSPORT   PTCLDY     2 -10  57 N6        30.44R WCI  -9
BINGHAMTON     CLEAR    -16 -21  78 NE3       30.29R
NEW YORK CITY  CLEAR      3 -16  40 NW9G23    30.41R WCI -12
BALTIMORE      PTCLDY    10  -3  55 W8        30.48R WCI  -2
WASHINGTON DC  FAIR      14  -3  47 W10       30.52R WCI   1

$$



USA.gov is the U.S. government's official web portal to all federal, state and local government web resources and services.